sat.trackr.live / text

‹ back to catalog

STARLINK-30449

NORAD 57903 · 2023-146N

PAYLOAD ACTIVE UNKNOWN

§ Identity

Operator
Country
US
Launch date
2023-09-20
Launch site
AFETR
Launch vehicle
Mass (kg)
RCS (m²)

Purposes: comms

External: N2YO · Heavens-Above · Gunter

§ Orbital elements

Epoch: 2026-09-20T09:08:31.916544Z

Period
94.27 min
Inclination
43.0019°
Eccentricity
0.0000780
Mean motion
15.27574407 rev/d
Perigee alt
482.5 km
Apogee alt
483.6 km
Semi-major
6,861.2 km
B*
5.6562e-6
RAAN
294.5226°
Arg perigee
272.9260°
Mean anomaly
87.1502°
Rev number
16,577

§ Raw data

STARLINK-304491 57903U 23146N   26263.38092496 -.00000106  00000+0  56562-5 0  99962 57903  43.0019 294.5226 0000780 272.9260  87.1502 15.27574407165777

JSON: /api/v1/satellites/57903 · /tle

For live sub-satellite position, see the globe view (requires WebGL).

§ Visibility from observer

Set your observer location to see the next 7 days of passes ≥ 10°. The values pass through the URL so the page stays shareable.

No JS? Fill the form by hand. The geolocation button needs JavaScript.